This demonstration page uses our WeatherBlox Daily Observations layout. Learn more.

Left ArrowRight Arrow

31.84235, -102.49876

Hourly Observations for May 3, 2021

Temp ( °F °C ) Dew Point ( °F °C ) Humidity (%) Winds ( mph kmh ) Pressure ( in mb ) Visibility ( mi km ) Precip ( " mm )
12:53 am 00:53 Cloudy 72 22.2 32 0 23 23 W 8 13 29.42 996 8 13 0.00 0.00
1:53 am 01:53 Cloudy 69 20.6 33 0.6 26 26 SW 8 13 29.44 997 8 13 0.00 0.00
2:39 am 02:39 Cloudy 70 21.1 32 0 25 25 WSW 8 13 29.46 998 9 14 0.00 0.00
2:53 am 02:53 Cloudy 70 21.1 32 0 25 25 WSW 7 11 29.44 997 9 14 0.00 0.00
3:53 am 03:53 Partly Cloudy 67 19.4 33 0.6 28 28 WSW 8 13 29.45 997 10 16 0.00 0.00
4:53 am 04:53 Clear 65 18.3 34 1.1 32 32 WSW 8 13 29.47 998 10 16 0.00 0.00
5:53 am 05:53 Clear 65 18.3 33 0.6 31 31 W 12 19 29.47 998 10 16 0.00 0.00
6:53 am 06:53 Clear 63 17.2 33 0.6 33 33 W 10 17 29.49 999 10 16 0.00 0.00
7:53 am 07:53 Sunny 65 18.3 33 0.6 31 31 NW 14 22 29.53 1000 10 16 0.00 0.00
8:02 am 08:02 Sunny 66 18.9 33 0.6 29 29 NW 15 24 29.56 1001 10 16 0.00 0.00
8:53 am 08:53 Sunny 67 19.4 43 6.1 42 42 NNW 13 20 29.55 1001 10 16 0.00 0.00
9:53 am 09:53 Sunny 70 21.1 48 8.9 46 46 N 10 17 29.56 1001 10 16 0.00 0.00
10:53 am 10:53 Sunny 73 22.8 48 8.9 41 41 VRB 7 11 29.57 1001 10 16 0.00 0.00
11:53 am 11:53 Sunny 76 24.4 48 8.9 37 37 NW 13 20 29.57 1002 10 16 0.00 0.00
12:53 pm 12:53 Sunny 80 26.7 45 7.2 29 29 NW 12 19 29.56 1001 10 16 0.00 0.00
1:53 pm 13:53 Sunny 83 28.3 43 6.1 24 24 NW 16 26 29.55 1001 10 16 0.00 0.00
2:53 pm 14:53 Mostly Sunny 83 28.3 41 5 23 23 NNW 13 20 29.54 1000 10 16 0.00 0.00
3:53 pm 15:53 Mostly Sunny 84 28.9 29 -1.7 13 13 W 14 22 29.54 1000 10 16 0.00 0.00
4:53 pm 16:53 Sunny 85 29.4 28 -2.2 13 13 WNW 15 24 29.53 1000 10 16 0.00 0.00
5:53 pm 17:53 Sunny 85 29.4 22 -5.6 10 10 W 21 33 29.53 1000 10 16 0.00 0.00
6:53 pm 18:53 Sunny 84 28.9 21 -6.1 10 10 WNW 18 30 29.54 1001 10 16 0.00 0.00
7:53 pm 19:53 Sunny 82 27.8 20 -6.7 10 10 WNW 18 30 29.57 1001 10 16 0.00 0.00
8:27 pm 20:27 Hazy 68 20 52 11.1 57 57 NNE 22 35 29.63 1003 6 10 0.00 0.00
8:53 pm 20:53 Clear 66 18.9 51 10.6 59 59 NNE 24 39 29.69 1005 10 16 0.00 0.00
9:53 pm 21:53 Mostly Clear 63 17.2 52 11.1 68 68 NNE 25 41 29.74 1007 8 13 0.00 0.00
10:53 pm 22:53 Clear 59 15 48 8.9 67 67 NNE 18 30 29.78 1009 10 16 0.00 0.00
11:53 pm 23:53 Clear 56 13.3 48 8.9 75 75 NNE 16 26 29.81 1009 10 16 0.00 0.00

Powered by AerisWeather